Hourly Data Report for October 04, 2017

All times are specified in Local Standard Time (LST). Add 1 hour to adjust for Daylight Saving Time where and when it is observed.

BANCROFT AUTO
ONTARIO

45°04'17.000" N
77°52'44.000" W
330.70 m
616I001
71294
WRK

Download Data

Hourly Data (October 2017)
Hourly Data Report for October 4, 2017
Temp Definition
°C
Dew Point Temp Definition
°C
Rel Hum Definition
%
Wind Dir Definition
10's deg

Wind Spd Definition
km/h
Visibility Definition
km
Stn Press Definition
kPa
Hmdx Definition


Wind Chill Definition


Weather Definition


TIME
00:00 13.5 9.1 75 17 5   98.64     LegendNANA
01:00 14.2 9.7 75 18 8   98.60     LegendNANA
02:00 15.4 10.3 72 20 10   98.51     LegendNANA
03:00 15.7 10.5 71 18 10   98.45     LegendNANA
04:00 15.3 10.6 74 19 4   98.44     LegendNANA
05:00 14.6 10.9 78 17 6   98.35     LegendNANA
06:00 15.1 12.1 82 19 5   98.34     LegendNANA
07:00 15.1 15.0 99 20 10   98.30     LegendNANA
08:00 15.1 15.1 100 18 7   98.26     LegendNANA
09:00 16.3 16.1 99 20 9   98.22     LegendNANA
10:00 18.2 17.3 95 19 8   98.15     LegendNANA
11:00 18.9 17.6 93 21 10   98.02     LegendNANA
12:00 19.8 18.1 90 21 9   97.96     LegendNANA
13:00 20.2 18.3 89 20 9   97.82 26   LegendNANA
14:00 19.6 19.1 97 21 7   97.74     LegendNANA
15:00 19.7 19.5 99 21 10   97.60     LegendNANA
16:00 19.1 18.9 99 25 7   97.61     LegendNANA
17:00 17.3 16.4 95 29 7   97.70     LegendNANA
18:00 16.4 14.7 89 28 7   97.75     LegendNANA
19:00 14.4 12.6 89 26 5   97.81     LegendNANA
20:00 13.4 12.2 93 28 7   97.92     LegendNANA
21:00 12.9 11.7 92 28 6   97.97     LegendNANA
22:00 11.8 10.8 93 25 5   97.99     LegendNANA
23:00 11.3 10.0 92 31 5   98.02     LegendNANA

Notes on Data Quality.

Legend

  • E = Estimated
  • M = Missing
  • NA = Not Available
  • ‡ = Partner data that is not subject to review by the National Climate Archives
Date modified: